Wind_Speed
10 10 10 10 10 10 10 11 11 11 11 11 11 11 11 11 11 11 11 11 11 11 11 11 10 10 10 10 10 10 10 10 9 9 9 10 10 10 10 10 10 10 10
11 11 11 11 11 11 11 11 12 12 12 12 12 12 12 12 11 11 12 12 12 11 11 11 10 10 9 9 10 10 10 9 9 8 9 9 9 9 9 9 9 10 10
12 12 13 13 13 13 13 13 13 13 13 13 12 12 12 12 12 12 12 12 12 12 11 11 10 9 9 9 9 10 10 9 9 9 9 10 10 10 10 9 10 10 10
13 13 14 14 14 14 14 14 13 13 13 13 13 13 13 13 13 13 12 12 12 12 11 11 11 10 10 10 10 10 10 10 10 10 10 10 11 11 11 10 11 11 11
15 15 15 16 16 16 15 15 15 14 14 14 14 14 14 14 13 13 13 12 12 12 12 11 11 11 11 11 11 11 10 10 10 10 11 11 11 11 11 11 11 11 12
16 17 17 17 17 17 17 16 16 16 16 16 15 15 15 15 14 14 14 13 13 13 12 12 12 12 12 11 11 12 11 11 11 11 11 11 12 12 12 12 12 12 12
18 18 18 18 18 18 18 18 17 17 17 17 17 17 17 16 16 15 15 15 14 14 14 13 13 13 13 13 13 13 12 12 12 12 12 12 12 12 12 12 12 12 12
19 19 19 19 19 19 19 18 19 18 18 18 18 18 18 18 17 17 17 16 16 16 15 15 14 14 14 15 15 14 14 13 13 13 13 13 13 13 13 13 13 13 13
20 20 20 20 20 19 19 19 19 19 19 19 19 20 19 19 19 19 18 18 18 17 17 17 16 16 16 16 16 16 15 15 15 15 15 15 15 14 14 14 15 14 14
21 21 22 22 21 21 20 20 20 20 20 20 21 21 21 21 21 21 20 19 19 18 18 18 18 17 17 17 16 16 17 17 16 17 16 16 16 15 16 16 16 15 15
22 22 23 22 22 22 22 21 21 21 21 21 21 21 21 22 22 21 21 21 20 20 20 20 19 19 18 17 17 18 18 17 17 17 18 17 18 17 17 17 16 16 16
24 23 23 23 23 23 23 22 22 22 21 21 21 21 22 22 22 22 22 22 22 21 21 20 20 20 19 19 19 19 18 18 18 18 18 18 18 18 17 17 17 17 17
24 24 23 23 23 23 23 23 23 23 22 22 22 22 22 22 22 23 23 23 23 22 22 21 21 21 21 20 19 19 19 19 19 19 18 18 18 18 18 18 18 18 18
25 24 24 24 23 23 23 23 23 23 23 22 22 22 22 22 22 22 22 22 22 22 21 21 21 21 20 21 21 21 20 20 20 20 20 20 19 19 19 19 18 19 19
26 25 24 24 24 23 23 23 23 23 23 23 23 23 22 22 22 22 21 21 20 21 21 21 21 21 21 21 21 22 22 21 21 20 20 21 21 21 21 21 20 20 20
26 25 25 25 24 24 24 24 23 23 23 23 23 23 23 22 22 21 21 20 20 21 22 22 21 21 21 21 21 22 22 22 22 21 22 22 22 21 21 22 21 21 21
25 25 25 25 25 24 24 24 23 23 24 24 24 23 23 23 22 21 21 21 21 21 22 22 22 22 21 21 21 22 22 23 23 23 23 23 23 23 23 23 23 23 23
24 24 24 25 25 25 25 24 24 24 24 24 24 24 23 23 22 22 22 22 22 22 22 21 21 22 22 22 23 23 23 23 24 24 24 24 24 24 24 24 24 23 23
25 24 25 25 25 25 26 25 24 25 24 24 24 24 24 23 23 23 23 24 24 23 23 22 22 22 23 24 24 24 24 24 24 24 24 24 24 25 25 25 25 25 25
25 25 25 25 26 26 26 26 25 25 25 24 24 24 24 23 24 24 24 24 24 24 24 24 23 23 23 23 24 25 25 25 25 25 24 24 25 25 25 26 26 26 26
26 26 26 26 26 26 26 26 26 26 25 25 24 24 24 24 24 23 24 24 25 25 25 24 24 23 23 23 24 25 24 24 25 25 26 25 25 26 26 26 27 27 28
26 26 26 26 25 26 26 26 26 26 26 26 26 25 25 25 24 24 24 24 25 25 25 25 25 24 24 25 26 26 25 25 25 26 27 28 28 27 28 28 28 29 30
27 27 27 26 26 27 26 26 26 26 26 26 26 25 24 24 24 24 25 25 25 25 25 25 25 25 25 26 26 26 27 27 26 27 27 28 29 30 30 30 30 30 31
26 27 27 27 27 27 27 26 26 26 25 25 24 23 23 24 25 26 26 26 26 26 26 26 26 26 27 27 27 27 28 28 28 28 29 29 30 31 31 32 32 31 31
28 27 27 27 28 28 28 27 27 26 25 24 23 23 23 24 25 26 26 27 27 27 27 28 28 28 28 29 29 28 29 29 30 30 30 30 31 32 32 33 33 33 33
28 28 28 28 28 27 27 28 27 26 25 24 24 24 24 25 26 26 27 27 27 27 28 28 28 29 29 29 30 30 31 31 32 32 33 32 32 33 33 33 34 34 34
Wind_Direction
296 298 299 301 302 302 304 301 301 304 306 306 304 302 300 300 301 300 298 296 296 297 297 296 292 287 283 279 276 275 277 268 267 265 260 259 256 256 259 263 263 263 262
291 293 294 295 298 300 301 300 301 302 302 304 303 302 300 298 299 300 299 297 296 297 297 296 295 290 286 281 277 276 275 272 271 268 263 261 261 260 265 267 267 267 267
290 289 290 293 295 297 297 296 296 297 298 299 299 300 298 296 295 297 297 296 295 294 294 296 293 288 284 283 282 281 277 274 269 265 264 260 259 260 261 266 269 269 267
292 292 291 291 293 294 294 294 293 293 294 295 297 299 298 294 293 294 294 295 294 294 294 292 291 286 283 282 280 282 280 275 269 265 262 261 262 260 260 262 266 269 269
289 290 290 290 289 290 291 292 291 290 290 291 292 293 294 293 293 291 291 293 292 291 292 289 288 287 286 283 279 280 279 275 269 267 265 263 264 264 263 264 265 265 266
290 290 290 290 289 288 288 288 288 288 288 288 288 288 289 290 289 289 287 287 287 288 288 288 287 284 283 282 279 278 277 273 270 269 269 269 268 267 267 267 267 267 266
289 289 289 289 288 287 285 286 286 287 285 285 285 285 285 286 287 287 286 285 285 285 284 285 286 283 279 280 278 277 275 272 271 271 270 270 271 270 270 268 268 267 266
287 287 287 289 288 286 284 284 285 285 284 283 282 283 284 285 285 285 284 284 283 283 281 282 282 282 280 279 277 275 272 270 271 271 270 270 271 271 271 269 268 268 266
285 286 286 286 287 286 285 284 283 283 283 283 283 283 283 284 283 283 283 282 282 280 278 279 279 279 280 279 274 272 270 268 268 269 268 268 268 268 268 268 269 269 268
286 286 287 286 284 283 283 283 283 283 283 284 284 283 282 282 283 281 280 280 280 277 276 277 277 277 278 278 273 272 270 269 269 268 266 267 267 267 266 268 268 269 268
286 286 286 285 283 282 282 283 283 283 284 284 285 284 283 282 280 280 277 277 278 276 274 274 275 277 276 274 273 273 269 268 268 268 267 268 267 267 267 266 267 267 268
285 284 285 283 283 282 282 283 283 284 284 283 283 283 283 283 280 279 277 275 275 276 273 272 274 274 273 273 272 271 268 266 266 266 266 266 266 266 266 265 266 265 266
285 284 284 283 282 281 281 281 282 282 282 283 283 282 282 282 281 279 277 275 275 275 274 273 273 274 271 269 269 267 266 266 264 264 264 265 266 266 264 264 264 263 264
285 284 283 282 281 281 281 281 282 282 281 281 281 282 282 281 281 281 279 277 277 276 274 274 275 275 274 269 267 266 264 264 264 264 264 264 265 265 265 265 266 265 265
284 283 282 280 280 281 280 281 283 282 281 281 281 282 281 281 282 282 281 280 279 278 276 275 275 274 275 272 268 266 264 263 263 264 264 263 264 263 263 264 265 265 265
284 281 281 282 282 281 280 281 281 282 282 281 281 281 280 280 281 282 281 280 279 278 276 276 276 275 274 272 272 270 266 265 265 263 262 262 262 262 263 265 265 265 265
285 283 280 281 281 281 280 280 280 281 282 281 280 279 278 278 279 280 280 279 279 279 276 277 275 275 274 273 273 272 269 266 265 264 264 262 261 260 262 263 264 264 265
285 284 281 279 279 279 279 279 279 281 281 280 279 278 277 275 274 275 277 279 278 277 276 278 275 274 273 274 273 272 270 267 266 265 265 265 263 262 263 264 264 265 265
284 283 282 280 278 277 276 276 277 279 280 279 278 277 276 274 273 273 274 275 276 276 277 278 275 273 273 272 273 272 271 270 267 265 264 264 264 264 264 265 265 265 265
284 284 283 282 280 278 277 276 276 277 278 278 278 277 274 274 273 273 273 274 274 277 277 277 276 275 273 272 273 273 273 270 267 265 265 265 265 266 266 267 267 266 266
284 283 282 282 282 281 279 277 276 276 276 275 275 275 275 273 273 274 274 273 273 274 276 276 276 275 274 272 273 274 272 270 269 267 266 267 267 267 267 268 267 267 267
283 283 283 283 283 282 280 279 278 276 276 275 274 274 273 271 271 273 273 273 273 274 274 274 274 274 273 272 274 274 272 270 270 269 268 268 267 267 268 269 269 268 267
281 281 282 282 282 281 280 279 278 277 277 275 275 275 271 269 270 272 274 274 274 275 275 275 274 273 273 274 273 272 271 272 272 270 270 269 269 269 269 269 269 270 269
280 280 281 281 281 280 280 279 279 279 277 275 273 271 271 272 272 273 274 275 274 274 274 274 274 273 273 273 273 272 273 273 273 272 272 272 272 270 269 270 270 269 269
281 280 281 281 280 279 280 279 279 278 274 271 268 272 274 275 275 274 274 274 273 273 274 274 274 273 272 273 274 274 273 273 274 274 274 273 272 271 270 271 271 271 270
281 280 280 279 279 279 278 278 277 274 270 268 270 273 275 276 277 275 275 275 274 274 275 275 275 274 273 273 273 274 274 274 275 275 275 274 273 272 272 273 272 272 272
Height
5841 5840 5840 5840 5839 5839 5838 5837 5837 5836 5836 5835 5834 5834 5833 5832 5831 5831 5830 5829 5829 5828 5828 5827 5827 5826 5826 5825 5825 5826 5826 5826 5826 5827 5827 5827 5828 5829 5829 5830 5830 5831 5831
5839 5838 5838 5838 5837 5837 5836 5835 5835 5834 5834 5833 5832 5832 5831 5830 5830 5829 5828 5828 5827 5826 5826 5825 5824 5824 5823 5823 5823 5823 5824 5824 5824 5825 5825 5826 5827 5826 5827 5827 5828 5828 5829
5836 5836 5836 5835 5835 5834 5834 5833 5832 5832 5831 5831 5830 5829 5828 5828 5827 5827 5826 5825 5825 5824 5823 5823 5822 5822 5821 5821 5821 5821 5821 5821 5822 5822 5823 5823 5824 5824 5825 5825 5825 5826 5826
5834 5833 5833 5832 5832 5831 5831 5830 5830 5829 5829 5828 5827 5827 5826 5825 5825 5824 5823 5823 5822 5821 5821 5821 5820 5820 5820 5819 5819 5819 5819 5819 5819 5820 5820 5821 5821 5822 5823 5823 5823 5823 5824
5831 5830 5830 5829 5829 5828 5828 5827 5826 5826 5826 5825 5825 5824 5823 5822 5822 5821 5821 5820 5820 5819 5818 5818 5818 5817 5817 5817 5817 5817 5817 5817 5817 5817 5817 5818 5818 5819 5820 5820 5821 5821 5821
5827 5827 5826 5826 5825 5825 5824 5824 5823 5823 5822 5822 5821 5821 5820 5819 5819 5818 5818 5817 5817 5816 5816 5815 5815 5815 5815 5814 5814 5814 5814 5814 5814 5815 5815 5815 5815 5816 5817 5817 5818 5818 5818
5824 5823 5822 5822 5821 5820 5820 5819 5819 5819 5818 5818 5817 5817 5816 5816 5815 5815 5815 5814 5814 5813 5813 5813 5812 5812 5812 5811 5811 5811 5811 5811 5812 5812 5812 5812 5813 5813 5813 5814 5814 5815 5815
5819 5819 5818 5817 5817 5816 5815 5815 5815 5814 5814 5813 5813 5813 5812 5812 5811 5811 5811 5811 5810 5810 5809 5809 5809 5809 5808 5808 5808 5808 5808 5808 5808 5809 5809 5809 5809 5810 5810 5810 5811 5811 5812
5815 5814 5814 5813 5812 5811 5811 5810 5810 5810 5809 5809 5808 5808 5808 5807 5807 5807 5806 5806 5806 5806 5805 5805 5805 5805 5804 5804 5804 5804 5804 5805 5805 5805 5805 5805 5806 5806 5806 5807 5807 5808 5808
5810 5809 5808 5808 5807 5807 5806 5805 5805 5804 5804 5804 5803 5803 5802 5802 5802 5801 5802 5801 5801 5801 5801 5800 5800 5800 5800 5800 5799 5800 5800 5800 5801 5801 5801 5801 5802 5802 5802 5803 5803 5804 5804
5804 5804 5803 5802 5802 5801 5801 5800 5800 5799 5799 5798 5797 5797 5797 5796 5796 5796 5796 5796 5795 5795 5796 5795 5795 5795 5795 5795 5795 5795 5795 5796 5796 5796 5797 5797 5797 5798 5798 5798 5799 5799 5800
5799 5798 5797 5796 5796 5796 5795 5794 5794 5793 5793 5792 5792 5791 5791 5790 5790 5790 5790 5790 5790 5790 5790 5790 5790 5790 5790 5790 5790 5790 5790 5791 5791 5792 5792 5792 5793 5793 5794 5794 5795 5795 5796
5793 5792 5791 5790 5790 5789 5789 5788 5788 5787 5786 5786 5785 5785 5785 5784 5784 5784 5783 5784 5783 5783 5783 5784 5784 5784 5784 5784 5784 5784 5785 5785 5786 5787 5787 5788 5788 5788 5789 5790 5790 5791 5791
5787 5786 5785 5784 5784 5783 5782 5782 5781 5781 5780 5780 5779 5779 5778 5778 5778 5777 5777 5777 5777 5777 5777 5777 5778 5778 5778 5778 5778 5779 5779 5780 5781 5781 5782 5783 5783 5784 5784 5785 5785 5786 5787
5780 5779 5779 5778 5777 5777 5776 5775 5775 5774 5774 5773 5773 5773 5772 5772 5772 5771 5771 5771 5771 5771 5771 5771 5772 5772 5772 5772 5772 5772 5773 5774 5775 5775 5776 5776 5777 5778 5779 5779 5780 5781 5781
5773 5773 5772 5771 5771 5770 5769 5769 5768 5768 5767 5767 5766 5766 5766 5766 5766 5766 5765 5766 5766 5765 5765 5765 5766 5766 5766 5766 5766 5766 5766 5767 5768 5769 5770 5770 5771 5772 5773 5773 5774 5775 5775
5767 5766 5765 5764 5764 5763 5763 5762 5762 5761 5761 5760 5760 5760 5760 5760 5760 5760 5759 5760 5760 5759 5759 5759 5760 5760 5760 5760 5760 5760 5760 5760 5761 5762 5763 5764 5764 5765 5766 5767 5768 5768 5769
5760 5759 5758 5757 5757 5756 5756 5755 5755 5754 5754 5753 5753 5753 5753 5753 5753 5753 5753 5753 5754 5753 5753 5753 5753 5754 5754 5753 5753 5753 5753 5754 5754 5755 5756 5757 5758 5758 5759 5760 5761 5762 5762
5753 5752 5751 5750 5750 5749 5748 5747 5747 5747 5747 5746 5746 5746 5746 5746 5747 5746 5747 5747 5747 5747 5747 5747 5747 5747 5747 5747 5746 5746 5746 5747 5747 5748 5749 5750 5750 5751 5752 5753 5754 5755 5755
5746 5745 5744 5743 5742 5741 5741 5740 5740 5740 5740 5739 5739 5739 5739 5739 5739 5739 5739 5740 5740 5740 5740 5740 5740 5740 5740 5740 5739 5739 5739 5740 5740 5741 5742 5742 5743 5744 5744 5745 5746 5747 5747
5738 5737 5736 5736 5735 5734 5733 5733 5732 5733 5732 5732 5732 5732 5732 5732 5732 5732 5732 5733 5733 5733 5733 5733 5733 5733 5733 5733 5732 5732 5732 5733 5733 5733 5734 5735 5735 5736 5737 5737 5738 5739 5739
5731 5730 5729 5728 5727 5726 5726 5725 5725 5725 5724 5724 5724 5724 5724 5724 5725 5725 5725 5725 5725 5726 5725 5725 5725 5725 5726 5725 5725 5725 5725 5725 5725 5726 5726 5727 5728 5728 5729 5729 5729 5730 5731
5723 5722 5721 5721 5720 5719 5718 5717 5717 5717 5716 5716 5716 5716 5716 5717 5717 5718 5718 5718 5718 5718 5718 5718 5718 5718 5718 5718 5717 5717 5717 5717 5718 5718 5718 5719 5719 5719 5720 5720 5720 5721 5721
5716 5714 5714 5713 5712 5711 5710 5710 5709 5709 5708 5708 5708 5708 5709 5709 5710 5710 5710 5710 5710 5710 5710 5710 5710 5710 5710 5709 5709 5709 5709 5709 5709 5709 5710 5710 5710 5710 5710 5711 5711 5711 5711
5707 5706 5705 5705 5704 5703 5702 5702 5701 5701 5700 5701 5701 5701 5701 5702 5702 5702 5702 5702 5702 5702 5702 5701 5701 5701 5701 5701 5701 5700 5701 5700 5700 5700 5700 5700 5700 5700 5700 5701 5701 5701 5701
5699 5698 5697 5696 5696 5695 5694 5694 5693 5693 5693 5693 5693 5694 5694 5694 5694 5694 5694 5693 5693 5693 5693 5692 5692 5692 5692 5692 5691 5691 5691 5691 5690 5690 5690 5690 5690 5690 5690 5690 5690 5690 5690